FENGYUN 1C DEB

Satellite information

Favourite Embed

Satellite Type and Status

DEBRISIN ORBIT

Key statistics

Satellite FENGYUN 1C DEB at a glance.

Uptime

9553

Days in orbit

Revolutions

≈ 14.4

Per day

Orbit

SSO

Sun Synchronous Orbit

Inclination

98.9

Latest

Satellite identification and parameters

Extended collection of information and parameters for FENGYUN 1C DEB.

Object identification

Identified? True

Debris? True

Object name: FENGYUN 1C DEB

International designator: 1999-025QW

Object number (NORAD): 30093

Object ID (CCSDS): 30093

Country: PEOPLES REPUBLIC OF CHINA (PRC)

Current information (Y/N): Y

RCS size: SMALL

Orbital parameters

Period: 99.814 minutes

Inclination: 98.8889 deg

SMA: 7127.805 km

Apoapsis: 801.083 km

Periapsis: 698.257 km

RAAN: 52.4174 deg

Eccentricy: 0.007213

Argument of periapsis: 98.8785 deg

Mean anomaly: 315.9692 deg

Mean motion: 14.42676708 rev/day

Mean motion (dot): 0.00001635 rev/day2

B* drag term: 0.00049076 1/REarth

Two-line elements (TLE)

Creation date: July 3, 2025, 5:26 p.m.

Reference frame: TEME

Reference center: EARTH

Epoch: July 3, 2025, 2:27 p.m. UTC

TLE line 0: 0 FENGYUN 1C DEB

TLE line 1: 1 30093U 99025QW 25184.60220894 .00001635 00000-0 49076-3 0 9995

TLE line 2: 2 30093 98.8889 52.4174 0072130 98.8785 315.9692 14.42676708964658

Live tracking on map

Real-time ground track for satellite FENGYUN 1C DEB.

In-orbit conjunctions

A list of the most updated potential collisions computed for object FENGYUN 1C DEB.

Target Orbit TCA Probability of collision Miss distance Type
CZ-4 DEB SSO 2025-04-24 04:40:10 0.0008830125 26.0 (m) DEBRIS
ADEOS SSO 2025-01-21 21:29:02 0.000173287 408.0 (m) PAYLOAD
NOAA 12 DEB SSO 2024-06-18 03:58:12 0.0001050183 343.0 (m) DEBRIS

Associated space launch

Chinese polar orbiting meteorological satellite

FENGYUN 1C DEB was lifted into orbit during the mission ‘Long March 4B | Feng Yun 1C’, on board a Long March 4B space rocket.

The launch took place on May 10, 1999, 1:33 a.m. from Launch Complex 7.

For more information about the launch, click the button.

Launch to space Long March 4B | Feng Yun 1C
Long March 4B | Feng Yun 1C

Agency: N/A

Status: Launch Successful

Launch date: May 10, 1999, 1:33 a.m. UTC

Rocket: Long March 4B

Launch pad: Launch Complex 7

Location: Taiyuan Satellite Launch Center, People's Republic of China

...

Latest news about this satellite

There are no fresh news available about this satellite. Check back as we update our databases every day.


Newsletter sign-up

Weekly statistics, charts and insights to help you stay on top of the space industry.